DW2973 Weather Reports


time (UTC)temp
F
wind
direction
speed
knots
gust
knots
rain 1hr
in
rain 24hr
in
rain mn
in
humidity
%
barometer
mb
20260508024531 41 25 0.0 0.0 0.00 0.00 0.00 91 1020.1
20260508023010 40 25 0.0 0.0 0.00 0.00 0.00 91 1020.0
20260508021510 40 25 0.0 0.0 0.00 0.00 0.00 90 1020.0
20260508020010 41 25 0.0 0.0 0.00 0.00 0.00 90 1020.0
20260508014508 41 25 0.0 0.0 0.00 0.00 0.00 90 1020.0
20260508013007 40 25 0.0 0.0 0.00 0.00 0.00 89 1019.8
20260508010007 40 25 0.0 0.0 0.00 0.00 0.00 87 1019.7
20260508004500 40 25 0.0 0.0 0.00 0.00 0.00 87 1019.6
20260508003058 41 25 0.0 0.0 0.00 0.00 0.00 87 1019.6
20260508001557 42 25 0.0 0.0 0.00 0.00 0.00 87 1019.6
20260508000055 42 25 0.0 0.0 0.00 0.00 0.00 86 1019.6
20260507234557 42 25 0.0 0.0 0.00 0.00 0.00 86 1019.5
20260507233058 43 25 0.0 0.0 0.00 0.00 0.00 86 1019.5
20260507231551 43 25 0.0 0.0 0.00 0.00 0.00 85 1019.4
20260507230105 43 25 0.0 0.0 0.00 0.00 0.00 84 1019.4
20260507224553 43 25 0.0 0.0 0.00 0.00 0.00 84 1019.3
20260507223046 43 25 0.0 0.0 0.00 0.00 0.00 85 1019.2
20260507221547 43 25 0.0 0.0 0.00 0.00 0.00 85 1019.2
20260507220050 43 25 0.0 0.0 0.00 0.00 0.00 85 1019.2
20260507214544 43 25 0.0 0.0 0.00 0.00 0.00 84 1019.2
20260507213044 44 25 0.0 0.0 0.00 0.00 0.00 84 1019.1
20260507211543 44 25 0.0 0.0 0.00 0.00 0.00 84 1019.0
20260507094552 56 325 0.0 0.0 0.00 0.00 0.00 64 1015.8
20260507093037 56 310 0.9 0.0 0.00 0.00 0.00 71 1015.7
20260507091536 55 360 0.9 0.0 0.00 0.00 0.00 70 1015.7
20260507090033 56 310 0.0 0.0 0.00 0.00 0.00 72 1015.7
20260507084538 55 18 0.0 0.0 0.00 0.00 0.00 72 1015.5
20260507083031 55 332 0.0 0.0 0.00 0.00 0.00 72 1015.4
20260507081531 54 318 0.0 0.0 0.00 0.00 0.00 75 1015.1
20260507080024 53 311 0.0 0.0 0.00 0.00 0.00 76 1015.0
20260507074522 52 307 0.0 0.0 0.00 0.00 0.00 79 1015.0
20260507073019 51 279 0.0 0.0 0.00 0.00 0.00 80 1014.9
20260507071519 51 315 0.0 0.0 0.00 0.00 0.00 81 1014.9
20260507070024 50 220 0.0 0.0 0.00 0.00 0.00 83 1014.7
20260507064515 50 218 0.0 0.0 0.00 0.00 0.00 86 1014.7
20260507063010 49 252 0.0 0.0 0.00 0.00 0.00 90 1014.6
20260507061506 47 252 0.0 0.0 0.00 0.00 0.00 92 1014.5
20260507060001 45 252 0.0 0.0 0.00 0.00 0.00 93 1014.4
20260507054558 44 252 0.0 0.0 0.00 0.00 0.00 93 1014.4
20260507053122 43 252 0.0 0.0 0.00 0.00 0.00 93 1014.4
20260507051555 42 196 0.0 0.0 0.00 0.00 0.00 92 1014.2
20260507050053 41 196 0.0 0.0 0.00 0.00 0.00 92 1014.2
20260507044603 41 196 0.0 0.0 0.00 0.00 0.00 92 1014.0
20260507043051 40 196 0.0 0.0 0.00 0.00 0.00 92 1014.0
20260507041553 40 196 0.0 0.0 0.00 0.00 0.00 92 1013.9
20260507040049 39 196 0.0 0.0 0.00 0.00 0.00 91 1013.9
20260507034548 39 196 0.0 0.0 0.00 0.00 0.00 91 1013.8
20260507033100 39 196 0.0 0.0 0.00 0.00 0.00 91 1013.7
20260507031557 39 196 0.0 0.0 0.00 0.00 0.00 91 1013.6